| time (UTC) | temp F | wind direction | speed MPH | gust MPH | rain 1hr in | rain 24hr in | rain mn in | humidity % | barometer mb |
| 20260502230041 | 54 | 34 | 0.0 | 0.0 | 0.00 | 0.00 | 0.01 | 28 | 1020.9 |
| 20260502225037 | 54 | 34 | 0.0 | 0.0 | 0.00 | 0.00 | 0.01 | 27 | 1021.1 |
| 20260502224029 | 55 | 35 | 0.0 | 0.0 | 0.00 | 0.00 | 0.01 | 26 | 1021.3 |
| 20260502221032 | 54 | 51 | 0.0 | 0.0 | 0.00 | 0.00 | 0.01 | 27 | 1021.4 |
| 20260502220030 | 54 | 59 | 1.0 | 0.0 | 0.00 | 0.00 | 0.01 | 29 | 1021.5 |
| 20260502215042 | 54 | 38 | 2.0 | 0.0 | 0.00 | 0.00 | 0.01 | 26 | 1021.8 |
| 20260502214034 | 55 | 55 | 2.0 | 0.0 | 0.00 | 0.00 | 0.01 | 25 | 1021.8 |
| 20260502213028 | 56 | 88 | 5.0 | 0.0 | 0.00 | 0.00 | 0.01 | 25 | 1021.9 |
| 20260502212039 | 57 | 50 | 5.0 | 0.0 | 0.00 | 0.00 | 0.01 | 27 | 1022.1 |
| 20260502211035 | 56 | 82 | 5.0 | 0.0 | 0.00 | 0.00 | 0.01 | 26 | 1022.4 |
| 20260502210029 | 56 | 126 | 4.0 | 0.0 | 0.00 | 0.00 | 0.00 | 28 | 1022.4 |
| 20260502205026 | 55 | 94 | 8.0 | 0.0 | 0.00 | 0.00 | 0.00 | 28 | 1022.6 |
| 20260502204039 | 55 | 123 | 4.0 | 0.0 | 0.00 | 0.00 | 0.00 | 26 | 1022.7 |
| 20260502203029 | 55 | 90 | 5.0 | 0.0 | 0.00 | 0.00 | 0.00 | 31 | 1022.9 |
| 20260502202029 | 54 | 98 | 2.0 | 0.0 | 0.00 | 0.00 | 0.00 | 30 | 1023.1 |
| 20260502201041 | 54 | 127 | 7.0 | 0.0 | 0.00 | 0.00 | 0.00 | 29 | 1023.2 |
| 20260502200035 | 54 | 89 | 2.0 | 0.0 | 0.00 | 0.00 | 0.00 | 32 | 1023.3 |
| 20260502195027 | 54 | 137 | 3.0 | 0.0 | 0.00 | 0.00 | 0.00 | 32 | 1023.6 |
| 20260502194022 | 54 | 74 | 7.0 | 0.0 | 0.00 | 0.00 | 0.00 | 34 | 1023.5 |
| 20260502193041 | 53 | 92 | 6.0 | 0.0 | 0.00 | 0.00 | 0.00 | 36 | 1023.6 |
| 20260502192034 | 53 | 61 | 7.0 | 0.0 | 0.00 | 0.00 | 0.00 | 37 | 1023.6 |
| 20260502191030 | 52 | 103 | 7.0 | 0.0 | 0.00 | 0.00 | 0.00 | 38 | 1023.9 |
| 20260502185040 | 51 | 78 | 4.0 | 0.0 | 0.00 | 0.00 | 0.00 | 40 | 1023.6 |
| 20260502184022 | 50 | 224 | 4.0 | 0.0 | 0.00 | 0.00 | 0.00 | 42 | 1023.9 |
| 20260502182038 | 50 | 52 | 4.0 | 0.0 | 0.00 | 0.00 | 0.00 | 41 | 1024.0 |
| 20260502181032 | 49 | 26 | 3.0 | 0.0 | 0.00 | 0.00 | 0.00 | 42 | 1024.4 |
| 20260502164040 | 43 | 113 | 3.0 | 0.0 | 0.00 | 0.00 | 0.00 | 54 | 1025.1 |
| 20260502163032 | 42 | 82 | 4.0 | 0.0 | 0.00 | 0.00 | 0.00 | 55 | 1025.3 |
| 20260502162042 | 42 | 103 | 3.0 | 0.0 | 0.00 | 0.00 | 0.00 | 58 | 1025.3 |
| 20260502161038 | 41 | 117 | 2.0 | 0.0 | 0.00 | 0.00 | 0.00 | 58 | 1025.3 |
| 20260502152036 | 39 | 51 | 3.0 | 0.0 | 0.00 | 0.00 | 0.00 | 60 | 1025.4 |
| 20260502151027 | 38 | 9 | 2.0 | 0.0 | 0.00 | 0.00 | 0.00 | 62 | 1025.5 |
| 20260502123041 | 24 | 345 | 2.0 | 0.0 | 0.00 | 0.00 | 0.00 | 78 | 1024.9 |
| 20260502122036 | 23 | 346 | 2.0 | 0.0 | 0.00 | 0.00 | 0.00 | 78 | 1024.5 |
| 20260502121027 | 24 | 346 | 3.0 | 0.0 | 0.00 | 0.00 | 0.00 | 77 | 1024.6 |
| 20260502115038 | 24 | 346 | 3.0 | 0.0 | 0.00 | 0.00 | 0.00 | 78 | 1024.5 |
| 20260502114030 | 23 | 345 | 3.0 | 0.0 | 0.00 | 0.00 | 0.00 | 78 | 1024.5 |
| 20260502112035 | 24 | 346 | 3.0 | 0.0 | 0.00 | 0.00 | 0.00 | 76 | 1024.6 |
| 20260502111036 | 24 | 346 | 2.0 | 0.0 | 0.00 | 0.00 | 0.00 | 76 | 1024.6 |
| 20260502105023 | 25 | 346 | 4.0 | 0.0 | 0.00 | 0.00 | 0.00 | 74 | 1024.4 |
| 20260502104041 | 25 | 346 | 4.0 | 0.0 | 0.00 | 0.00 | 0.00 | 74 | 1024.5 |
| 20260502103035 | 25 | 346 | 3.0 | 0.0 | 0.00 | 0.00 | 0.00 | 75 | 1024.4 |
| 20260502102030 | 25 | 346 | 3.0 | 0.0 | 0.00 | 0.00 | 0.00 | 74 | 1024.5 |
| 20260502101021 | 26 | 346 | 3.0 | 0.0 | 0.00 | 0.00 | 0.00 | 73 | 1024.5 |
| 20260502091021 | 27 | 346 | 2.0 | 0.0 | 0.00 | 0.00 | 0.00 | 71 | 1023.8 |
| 20260502071024 | 30 | 345 | 0.0 | 0.0 | 0.00 | 0.00 | 0.00 | 64 | 1024.3 |
| 20260502070024 | 30 | 346 | 0.0 | 0.0 | 0.00 | 0.00 | 0.00 | 64 | 1024.5 |
| 20260502065041 | 30 | 346 | 0.0 | 0.0 | 0.00 | 0.00 | 0.00 | 63 | 1024.4 |
| 20260502064033 | 31 | 345 | 0.0 | 0.0 | 0.00 | 0.00 | 0.00 | 63 | 1024.4 |
| 20260502063025 | 31 | 346 | 1.0 | 0.0 | 0.00 | 0.00 | 0.00 | 62 | 1024.4 |
| 20260502062042 | 31 | 345 | 3.0 | 0.0 | 0.00 | 0.00 | 0.00 | 63 | 1024.3 |
| 20260502060034 | 32 | 345 | 0.0 | 0.0 | 0.00 | 0.00 | 0.00 | 62 | 1024.2 |
| 20260502055026 | 32 | 345 | 1.0 | 0.0 | 0.00 | 0.00 | 0.00 | 60 | 1024.0 |
| 20260502054019 | 33 | 346 | 2.0 | 0.0 | 0.00 | 0.00 | 0.00 | 60 | 1024.1 |
| 20260502053039 | 33 | 346 | 0.0 | 0.0 | 0.00 | 0.00 | 0.00 | 59 | 1023.8 |
| 20260502052037 | 33 | 346 | 1.0 | 0.0 | 0.00 | 0.00 | 0.00 | 60 | 1023.9 |
| 20260502051029 | 32 | 346 | 0.0 | 0.0 | 0.00 | 0.00 | 0.00 | 62 | 1023.8 |
| 20260502045040 | 32 | 345 | 3.0 | 0.0 | 0.00 | 0.00 | 0.00 | 64 | 1023.7 |
| 20260502043030 | 32 | 345 | 0.0 | 0.0 | 0.00 | 0.00 | 0.00 | 64 | 1023.9 |
| 20260502042028 | 33 | 346 | 0.0 | 0.0 | 0.00 | 0.00 | 0.00 | 62 | 1023.7 |
| 20260502041041 | 33 | 346 | 0.0 | 0.0 | 0.00 | 0.00 | 0.00 | 62 | 1023.5 |
| 20260502040031 | 33 | 346 | 0.0 | 0.0 | 0.00 | 0.00 | 0.00 | 63 | 1023.5 |
| 20260502035023 | 34 | 346 | 0.0 | 0.0 | 0.00 | 0.00 | 0.00 | 60 | 1023.4 |
| 20260502034023 | 35 | 346 | 0.0 | 0.0 | 0.00 | 0.00 | 0.00 | 60 | 1023.3 |
| 20260502033035 | 35 | 345 | 2.0 | 0.0 | 0.00 | 0.00 | 0.00 | 61 | 1022.9 |
| 20260502032026 | 36 | 345 | 1.0 | 0.0 | 0.00 | 0.00 | 0.00 | 59 | 1022.8 |
| 20260502031023 | 36 | 345 | 1.0 | 0.0 | 0.00 | 0.00 | 0.00 | 57 | 1022.7 |
| 20260502030035 | 37 | 346 | 0.0 | 0.0 | 0.00 | 0.00 | 0.00 | 57 | 1022.6 |
| 20260502025031 | 38 | 345 | 0.0 | 0.0 | 0.00 | 0.00 | 0.00 | 53 | 1022.7 |
| 20260502024023 | 39 | 346 | 0.0 | 0.0 | 0.00 | 0.00 | 0.00 | 52 | 1022.6 |
| 20260502023039 | 40 | 346 | 0.0 | 0.0 | 0.00 | 0.00 | 0.00 | 51 | 1022.5 |
| 20260502021035 | 41 | 61 | 0.0 | 0.0 | 0.00 | 0.00 | 0.00 | 47 | 1022.2 |
| 20260502020033 | 42 | 61 | 0.0 | 0.0 | 0.00 | 0.00 | 0.00 | 46 | 1022.2 |
| 20260502015025 | 42 | 61 | 0.0 | 0.0 | 0.00 | 0.00 | 0.00 | 44 | 1022.1 |
| 20260502014042 | 43 | 64 | 0.0 | 0.0 | 0.00 | 0.00 | 0.00 | 44 | 1022.0 |
| 20260502013036 | 43 | 325 | 1.0 | 0.0 | 0.00 | 0.00 | 0.00 | 44 | 1021.9 |
| 20260502012032 | 44 | 44 | 4.0 | 0.0 | 0.00 | 0.00 | 0.00 | 42 | 1021.1 |
| 20260502011026 | 45 | 57 | 1.0 | 0.0 | 0.00 | 0.00 | 0.00 | 41 | 1021.0 |
| 20260502010024 | 45 | 344 | 3.0 | 0.0 | 0.00 | 0.00 | 0.00 | 40 | 1021.0 |
| 20260502004034 | 46 | 310 | 2.0 | 0.0 | 0.00 | 0.00 | 0.00 | 38 | 1020.8 |
| 20260502003027 | 46 | 355 | 2.0 | 0.0 | 0.00 | 0.00 | 0.00 | 38 | 1021.0 |
| 20260502002042 | 47 | 9 | 2.0 | 0.0 | 0.00 | 0.00 | 0.00 | 35 | 1020.8 |
| 20260502001034 | 47 | 346 | 4.0 | 0.0 | 0.00 | 0.00 | 0.00 | 37 | 1020.9 |
| 20260502000030 | 47 | 59 | 5.0 | 0.0 | 0.00 | 0.00 | 0.00 | 35 | 1021.1 |
| 20260501235023 | 48 | 23 | 2.0 | 0.0 | 0.00 | 0.00 | 0.00 | 30 | 1020.4 |
| 20260501234036 | 48 | 302 | 2.0 | 0.0 | 0.00 | 0.00 | 0.00 | 29 | 1020.4 |
| 20260501233036 | 48 | 355 | 3.0 | 0.0 | 0.00 | 0.00 | 0.00 | 27 | 1020.3 |
| 20260501232031 | 48 | 17 | 1.0 | 0.0 | 0.00 | 0.00 | 0.00 | 30 | 1020.5 |
| 20260501231025 | 48 | 331 | 4.0 | 0.0 | 0.00 | 0.00 | 0.00 | 30 | 1020.3 |